Home   Weather   Cranbrook   Past weeks

Flag for Canada Past Weather in Cranbrook, British Columbia, Canada — Yesterday and Last 2 Weeks

39 °F

Light rain. Fog.

Feels Like: 39 °F
Forecast: 44 / 53 °F
Wind: 2 mph from Northwest

Location: Cranbrook

Current Time: Oct 27, 2016 at 5:01:37 AM

Latest Report: Oct 27, 2016 at 4:00 AM

Visibility: 2 mi

Pressure: 29.92 "Hg (26.67 "Hg at 933m altitude)

Humidity: 93%

Dew Point: 37 °F

Location of CranbrookLocation

Past Weather in Cranbrook — Graph


Cranbrook Temperature Yesterday

Maximum temperature yesterday: 41 °F (at 1:00 AM)
Minimum temperature yesterday: 32 °F (at 8:00 AM)
Average temperature yesterday: 37 °F

High & Low Weather Summary for the Past Weeks

High55 °F (Oct 25, 3:00 PM)100% (Oct 13, 1:00 AM)30.40 "Hg (Oct 13, 1:00 AM)
Low21 °F (Oct 12, 7:00 AM)44% (Oct 25, 4:00 PM)29.33 "Hg (Oct 14, 8:00 AM)
Average40 °F85%29.94 "Hg
* Reported Oct 12 4:00 AM — Oct 27 4:00 AM, Cranbrook, Weather by CustomWeather, © 2016

Note: Actual official high and low records may vary slightly from our data, if they occured in-between our weather recording intervals... More about our weather records


Cranbrook Weather History for the Previous 24 Hours

Scroll right to see more
Time TempWeatherWind HumidityBarometerVisibility
4:00 AM
Thu, Oct 27
39 °FLight rain. Fog.2 mph93%29.92 "Hg2 mi
3:00 AM39 °FLight rain. Fog.3 mph93%29.96 "Hg2 mi
2:00 AM37 °FLight rain. Fog.5 mph100%29.97 "Hg4 mi
1:00 AM39 °FLight rain. Fog.3 mph93%30.00 "Hg2 mi
12:00 AM37 °FLight rain. Fog.3 mph100%30.03 "Hg2 mi
11:00 PM
Wed, Oct 26
39 °FLight rain. Fog.3 mph93%30.04 "Hg2 mi
10:00 PM39 °FLight rain. Fog.No wind93%30.06 "Hg2 mi
9:00 PM39 °FLight rain. Fog.No wind100%30.07 "Hg2 mi
8:00 PM39 °FLight rain. Fog.2 mph100%30.08 "Hg1 mi
7:00 PM39 °FLight rain. Fog.No wind93%30.09 "Hg3 mi
6:00 PM39 °FLight rain. Fog.No wind93%30.10 "Hg4 mi
5:00 PM39 °FLight rain. Fog.3 mph93%30.10 "Hg3 mi
4:00 PM39 °FLight rain. Fog.No wind93%30.11 "Hg3 mi
3:00 PM39 °FLight rain. Fog.No wind93%30.12 "Hg3 mi
2:00 PM39 °FLight rain. Overcast.3 mph93%30.13 "Hg10 mi
1:00 PM37 °FLight rain. Overcast.No wind87%30.15 "Hg15 mi
12:00 PM37 °FMostly cloudy.No wind87%30.18 "Hg25 mi
11:00 AM36 °FMostly cloudy.No wind87%30.18 "Hg25 mi
10:00 AM34 °FMore clouds than sun.No wind93%30.19 "Hg25 mi
9:00 AM34 °FPartly cloudy.No wind87%30.17 "Hg25 mi
8:00 AM32 °FPartly cloudy.No wind93%30.17 "Hg25 mi
7:00 AM34 °FPassing clouds.2 mph93%30.16 "Hg25 mi
6:00 AM36 °FPartly cloudy.5 mph87%30.15 "Hg25 mi
5:00 AM37 °FPassing clouds.7 mph81%30.14 "Hg25 mi
Weather by CustomWeather, © 2016

See weather overviewHow to use our weather pages